Wetterstats.de || Aktuelle Messwerte / Archiv || Stationsstandorte || Wetterblog || Wissenswertes


Monatsübersicht für Oktober 2019 Diagramm
 
Wetter Information zur Wetteranzeige
Zeitraffer
Tageslänge (hh:mm)
Höchsttemperatur in °C
Uhrzeit
Tiefsttemperatur in °C
Uhrzeit
Luftfeuchte (max., in %)
Uhrzeit
Luftfeuchte (min., in %)
Uhrzeit
Luftdruck (max., in hPa)
Uhrzeit
Luftdruck (min., in hPa)
Uhrzeit
Luftdruck (Ø, in hPa)
Regenrate (max, mm/h)
Uhrzeit
Niederschlag in mm
Niederschlagsdauer (hh:mm)
Verdunstung in mm
Solar in W/m² (Ø)
Solar in W/m² (max.)
UV-Index (max.)
Sonnenscheindauer (hh:mm)
Windrichtung (Ø)
Windstärke (Ø in km/h)
Windstärke (Ø in bft)
Windböe (max., in km/h)
Uhrzeit
Windböe (max., in bft)
Uhrzeit
Taupunkt (max., in °C)
Uhrzeit
Taupunkt (min., in °C)
Uhrzeit
Windchill (min., in °C)
Uhrzeit
Gewitterindex (max.)
Uhrzeit
Waldbrandindex (max.)
Uhrzeit
Graslandfeuerindex (max.)
Uhrzeit
Staubsturm-Index (max.)
Uhrzeit
01
Zeitraffer
11:41
16.9
16:45 Uhr
11.4
07:25 Uhr

96
14:30 Uhr
83
01:15 Uhr
1007.6
00:15 Uhr

996.9
18:00 Uhr
1000.8
2,400
06:30 Uhr
3,400
00:17:00
0.330
52
151
11:20 Uhr
0.6
11:00 Uhr

00:00:00
0,6
0
12,9
09:05 Uhr

2
15.2
16:40 Uhr
9.5
02:05 Uhr
11.4
07:25 Uhr
8
19:20 Uhr
0.0
00:00 Uhr
0.0
00:00 Uhr
0.0
00:00 Uhr
02
Zeitraffer
11:37
14.0
00:05 Uhr
8.1
07:15 Uhr

95
01:55 Uhr
61
16:05 Uhr
1008.1
22:30 Uhr

997.2
04:45 Uhr
1002.7
7,200
06:15 Uhr
7,400
00:37:00
0.483
78
554
13:35 Uhr
1.4
13:40 Uhr

00:16:00
1,0
0
19,3
05:45 Uhr

3
12.6
00:05 Uhr
5.9
16:10 Uhr
6.8
07:25 Uhr
5
00:00 Uhr
0.0
00:00 Uhr
0.0
00:00 Uhr
0.0
00:00 Uhr
03
Zeitraffer
11:34
12.8
14:05 Uhr
8.3
22:50 Uhr

96
08:55 Uhr
76
14:05 Uhr
1014.2
22:00 Uhr

1006.6
03:35 Uhr
1010.6
2,400
02:10 Uhr
3,400
00:17:00
0.432
75
478
13:40 Uhr
1.4
13:40 Uhr

00:02:00
0,3
0
8,0
11:30 Uhr

2
9.5
12:05 Uhr
6.0
00:20 Uhr
8.3
22:50 Uhr
0
00:00 Uhr
0.0
00:00 Uhr
0.0
00:00 Uhr
0.0
00:00 Uhr
04
Zeitraffer
11:29
11.8
11:20 Uhr
5.7
06:05 Uhr

96
20:25 Uhr
64
12:10 Uhr
1013.7
00:30 Uhr

1005.9
23:45 Uhr
1009.7
7,200
18:45 Uhr
9,200
00:46:00
0.635
116
357
10:10 Uhr
1.1
11:20 Uhr

01:47:00
1,2
0
17,7
11:30 Uhr

3
8.7
20:25 Uhr
4.8
06:05 Uhr
5.7
06:05 Uhr
0
00:00 Uhr
0.0
00:00 Uhr
0.0
00:00 Uhr
0.0
00:00 Uhr
05
Zeitraffer
11:25
11.8
15:55 Uhr
5.6
23:55 Uhr

96
00:00 Uhr
64
15:50 Uhr
1020.3
23:30 Uhr

1005.3
03:00 Uhr
1012.0
2,400
00:10 Uhr
5,400
00:27:00
0.533
71
305
12:50 Uhr
1.3
12:50 Uhr

00:10:00
5,7
1
29,0
10:40 Uhr

4
7.9
00:10 Uhr
4.6
23:45 Uhr
2.5
07:50 Uhr
0
00:00 Uhr
0.0
00:00 Uhr
0.0
00:00 Uhr
0.0
00:00 Uhr
06
Zeitraffer
11:21
10.4
12:45 Uhr
3.2
05:25 Uhr

96
06:15 Uhr
53
13:00 Uhr
1021.3
09:55 Uhr

1017.6
18:40 Uhr
1019.6
0,000
00:00 Uhr
0,000
00:00:00
1.118
184
469
11:10 Uhr
1.4
12:20 Uhr

04:54:00
1,7
0
20,9
13:05 Uhr

4
5.8
10:05 Uhr
0.9
13:15 Uhr
3.2
05:25 Uhr
0
00:00 Uhr
0.0
00:00 Uhr
0.0
00:00 Uhr
0.0
00:00 Uhr
07
Zeitraffer
11:17
12.3
15:25 Uhr
0.9
06:40 Uhr

93
04:15 Uhr
48
15:30 Uhr
1020.7
10:55 Uhr

1015.8
23:55 Uhr
1018.8
0,000
00:00 Uhr
0,000
00:00:00
1.041
195
546
12:45 Uhr
1.4
12:35 Uhr

05:06:00
0,1
0
8,0
14:40 Uhr

2
4.5
10:15 Uhr
-0.2
06:40 Uhr
0.9
06:40 Uhr
0
00:00 Uhr
0.0
00:00 Uhr
0.0
00:00 Uhr
0.0
00:00 Uhr
08
Zeitraffer
11:13
13.1
16:55 Uhr
4.9
00:10 Uhr

97
14:35 Uhr
67
04:05 Uhr
1015.7
00:00 Uhr

1003.3
15:00 Uhr
1007.1
2,400
10:25 Uhr
1,400
00:07:00
0.356
32
98
15:30 Uhr
0.0
00:00 Uhr

00:00:00
0,6
0
14,5
06:50 Uhr

3
12.2
17:05 Uhr
1.6
02:10 Uhr
4.9
00:10 Uhr
4
19:05 Uhr
0.0
00:00 Uhr
0.0
00:00 Uhr
0.0
00:00 Uhr
09
Zeitraffer
11:09
17.7
12:05 Uhr
10.3
07:35 Uhr

96
00:30 Uhr
64
13:35 Uhr
1007.4
09:30 Uhr

1003.3
20:15 Uhr
1005.1
2,400
20:45 Uhr
0,600
00:03:00
0.940
135
536
12:00 Uhr
1.4
12:10 Uhr

03:03:00
0,3
0
9,7
20:00 Uhr

2
11.6
10:50 Uhr
9.1
23:00 Uhr
10.3
07:35 Uhr
3
00:00 Uhr
0.0
00:00 Uhr
0.0
00:00 Uhr
0.0
00:00 Uhr
10
Zeitraffer
11:05
15.3
15:50 Uhr
10.0
07:30 Uhr

94
01:15 Uhr
63
15:55 Uhr
1013.4
23:50 Uhr

1003.6
00:15 Uhr
1008.0
2,400
00:20 Uhr
0,400
00:02:00
0.635
93
497
13:05 Uhr
1.1
12:00 Uhr

00:59:00
0,3
0
11,3
20:30 Uhr

2
9.7
02:25 Uhr
8.1
15:35 Uhr
10.0
07:30 Uhr
2
00:00 Uhr
0.0
00:00 Uhr
0.0
00:00 Uhr
0.0
00:00 Uhr
11
Zeitraffer
11:01
15.8
15:35 Uhr
10.0
02:10 Uhr

88
00:00 Uhr
73
14:15 Uhr
1013.8
01:50 Uhr

1008.2
23:55 Uhr
1011.6
2,400
07:25 Uhr
0,200
00:01:00
0.584
73
196
10:15 Uhr
0.9
13:40 Uhr

00:04:00
0,9
0
11,3
18:35 Uhr

2
11.8
18:10 Uhr
7.8
01:45 Uhr
10.0
02:10 Uhr
4
18:55 Uhr
0.0
00:00 Uhr
0.0
00:00 Uhr
0.0
00:00 Uhr
12
Zeitraffer
10:57
21.3
12:50 Uhr
14.6
06:10 Uhr

81
05:55 Uhr
59
12:55 Uhr
1010.8
21:55 Uhr

1006.8
06:50 Uhr
1008.7
0,000
00:00 Uhr
0,000
00:00:00
1.346
168
512
12:45 Uhr
1.6
12:50 Uhr

04:37:00
0,7
0
11,3
08:15 Uhr

2
13.2
12:50 Uhr
11.1
00:00 Uhr
14.6
06:10 Uhr
5
23:30 Uhr
0.0
00:00 Uhr
0.4
12:55 Uhr
0.0
00:00 Uhr
13
Zeitraffer
10:53
23.3
14:50 Uhr
14.9
07:35 Uhr

86
07:30 Uhr
65
12:40 Uhr
1012.4
10:35 Uhr

1009.4
21:00 Uhr
1010.8
0,000
00:00 Uhr
0,000
00:00:00
1.219
140
411
13:25 Uhr
1.4
13:00 Uhr

03:35:00
1,0
0
16,1
20:00 Uhr

3
17.4
17:10 Uhr
12.1
00:00 Uhr
14.9
07:35 Uhr
11
18:55 Uhr
0.0
00:00 Uhr
0.6
13:05 Uhr
0.0
00:00 Uhr
14
Zeitraffer
10:49
23.9
12:30 Uhr
15.6
07:50 Uhr

89
23:50 Uhr
62
12:20 Uhr
1015.0
12:25 Uhr

1010.0
00:00 Uhr
1012.5
0,000
00:00 Uhr
0,000
00:00:00
1.295
154
470
12:35 Uhr
1.4
12:20 Uhr

04:53:00
1,0
0
12,9
16:15 Uhr

2
16.2
12:30 Uhr
13.2
07:30 Uhr
15.6
07:50 Uhr
8
00:00 Uhr
0.0
00:00 Uhr
0.8
13:00 Uhr
0.0
00:00 Uhr
15
Zeitraffer
10:45
21.1
15:50 Uhr
12.7
06:40 Uhr

96
05:25 Uhr
67
15:30 Uhr
1010.9
00:00 Uhr

1003.6
23:55 Uhr
1006.7
0,000
00:00 Uhr
0,000
00:00:00
0.940
144
437
12:40 Uhr
1.3
12:40 Uhr

05:12:00
1,1
0
17,7
14:45 Uhr

3
14.9
12:55 Uhr
11.9
06:40 Uhr
12.7
06:40 Uhr
8
18:50 Uhr
0.0
00:00 Uhr
0.8
14:45 Uhr
0.0
00:00 Uhr


 
Wetter Information zur Wetteranzeige
Zeitraffer
Tageslänge (hh:mm)
Höchsttemperatur in °C
Uhrzeit
Tiefsttemperatur in °C
Uhrzeit
Luftfeuchte (max., in %)
Uhrzeit
Luftfeuchte (min., in %)
Uhrzeit
Luftdruck (max., in hPa)
Uhrzeit
Luftdruck (min., in hPa)
Uhrzeit
Luftdruck (Ø, in hPa)
Regenrate (max, mm/h)
Uhrzeit
Niederschlag in mm
Niederschlagsdauer (hh:mm)
Verdunstung in mm
Solar in W/m² (Ø)
Solar in W/m² (max.)
UV-Index (max.)
Sonnenscheindauer (hh:mm)
Windrichtung (Ø)
Windstärke (Ø in km/h)
Windstärke (Ø in bft)
Windböe (max., in km/h)
Uhrzeit
Windböe (max., in bft)
Uhrzeit
Taupunkt (max., in °C)
Uhrzeit
Taupunkt (min., in °C)
Uhrzeit
Windchill (min., in °C)
Uhrzeit
Gewitterindex (max.)
Uhrzeit
Waldbrandindex (max.)
Uhrzeit
Graslandfeuerindex (max.)
Uhrzeit
Staubsturm-Index (max.)
Uhrzeit
16
Zeitraffer
10:41
14.4
08:25 Uhr
10.5
05:05 Uhr

96
09:45 Uhr
92
15:05 Uhr
1010.8
22:56 Uhr

1002.6
05:00 Uhr
1006.5
2,400
09:20 Uhr
3,000
00:15:00
0.127
22
54
14:15 Uhr
0.0
00:00 Uhr

00:13:00
0,2
0
8,0
10:45 Uhr

2
13.7
08:30 Uhr
9.6
05:00 Uhr
10.5
05:05 Uhr
5
00:00 Uhr
0.0
00:00 Uhr
0.4
00:00 Uhr
0.0
00:00 Uhr
17
Zeitraffer
10:37
17.9
15:30 Uhr
10.8
00:05 Uhr

95
00:15 Uhr
65
12:45 Uhr
1012.5
18:40 Uhr

1010.0
07:00 Uhr
1011.3
0,000
00:05 Uhr
0,000
00:00:00
0.737
92
318
12:40 Uhr
1.0
12:40 Uhr

00:29:00
0,4
0
11,3
08:20 Uhr

2
12.5
18:20 Uhr
9.9
00:05 Uhr
10.8
00:05 Uhr
5
18:45 Uhr
0.0
00:05 Uhr
0.0
00:05 Uhr
0.0
00:05 Uhr
18
Zeitraffer
10:33
20.0
12:40 Uhr
11.1
23:55 Uhr

93
05:00 Uhr
65
12:20 Uhr
1011.9
00:00 Uhr

1006.3
16:50 Uhr
1009.1
2,400
03:10 Uhr
1,600
00:08:00
0.940
133
427
12:35 Uhr
1.1
12:00 Uhr

03:28:00
1,0
0
20,9
19:25 Uhr

4
14.5
11:25 Uhr
8.3
23:55 Uhr
11.1
23:55 Uhr
7
18:40 Uhr
0.0
00:00 Uhr
0.3
12:20 Uhr
0.0
00:00 Uhr
19
Zeitraffer
10:29
16.2
14:45 Uhr
10.3
03:25 Uhr

88
03:35 Uhr
74
11:45 Uhr
1010.5
02:15 Uhr

1007.8
16:35 Uhr
1009.2
0,000
00:00 Uhr
0,000
00:00:00
0.483
64
254
11:20 Uhr
0.7
11:20 Uhr

00:04:00
1,6
0
19,3
16:10 Uhr

3
11.9
16:40 Uhr
7.8
05:00 Uhr
10.3
03:25 Uhr
4
18:40 Uhr
0.0
00:00 Uhr
0.0
00:00 Uhr
0.0
00:00 Uhr
20
Zeitraffer
10:25
19.9
12:25 Uhr
12.5
04:05 Uhr

89
22:35 Uhr
61
12:50 Uhr
1011.4
23:20 Uhr

1008.2
00:00 Uhr
1009.6
0,000
00:00 Uhr
0,000
00:00:00
0.838
100
478
12:45 Uhr
1.1
12:45 Uhr

01:19:00
0,7
0
11,3
00:00 Uhr

2
13.3
20:15 Uhr
9.9
03:25 Uhr
12.5
04:05 Uhr
7
18:50 Uhr
0.0
00:00 Uhr
0.7
13:05 Uhr
0.0
00:00 Uhr
21
Zeitraffer
10:21
18.4
15:50 Uhr
12.0
08:10 Uhr

93
08:15 Uhr
75
16:15 Uhr
1019.9
23:50 Uhr

1011.0
00:35 Uhr
1015.5
0,000
00:00 Uhr
0,000
00:00:00
0.483
82
217
13:10 Uhr
0.8
12:45 Uhr

00:28:00
0,2
0
8,0
03:15 Uhr

2
14.2
15:45 Uhr
10.7
07:40 Uhr
12.0
08:10 Uhr
7
18:35 Uhr
0.0
00:00 Uhr
0.4
15:00 Uhr
0.0
00:00 Uhr
22
Zeitraffer
10:17
17.7
13:15 Uhr
10.0
23:55 Uhr

95
08:20 Uhr
66
12:15 Uhr
1023.9
11:50 Uhr

1019.8
00:00 Uhr
1022.1
0,000
00:00 Uhr
0,000
00:00:00
0.533
101
282
12:40 Uhr
0.9
12:35 Uhr

01:41:00
0,0
0
3,2
16:00 Uhr

1
13.6
00:00 Uhr
8.3
23:45 Uhr
10.0
23:55 Uhr
6
00:00 Uhr
0.0
00:00 Uhr
0.6
13:00 Uhr
0.0
00:00 Uhr
23
Zeitraffer
10:13
16.6
15:05 Uhr
7.3
06:45 Uhr

95
08:40 Uhr
78
13:55 Uhr
1023.2
00:25 Uhr

1013.5
23:50 Uhr
1019.1
0,000
00:00 Uhr
0,000
00:00:00
0.737
114
348
11:50 Uhr
0.9
12:30 Uhr

02:52:00
2,6
1
22,5
13:45 Uhr

4
12.8
15:05 Uhr
6.2
06:50 Uhr
7.3
06:45 Uhr
4
18:30 Uhr
0.0
00:00 Uhr
0.3
14:20 Uhr
0.0
00:00 Uhr
24
Zeitraffer
10:10
16.1
16:05 Uhr
12.1
23:50 Uhr

97
04:20 Uhr
86
15:30 Uhr
1013.5
00:00 Uhr

1007.9
15:35 Uhr
1010.1
2,400
09:25 Uhr
0,200
00:01:00
0.229
42
110
15:05 Uhr
0.0
00:00 Uhr

00:00:00
2,0
0
17,7
00:00 Uhr

3
13.8
16:25 Uhr
11.0
23:50 Uhr
11.1
04:30 Uhr
5
06:15 Uhr
0.0
00:00 Uhr
0.0
00:00 Uhr
0.0
00:00 Uhr
25
Zeitraffer
10:06
19.1
11:40 Uhr
11.0
01:55 Uhr

96
02:40 Uhr
62
15:30 Uhr
1020.1
19:10 Uhr

1011.0
00:00 Uhr
1016.5
0,000
00:00 Uhr
0,000
00:00:00
0.762
111
331
11:55 Uhr
0.9
13:25 Uhr

02:13:00
0,2
0
8,0
09:25 Uhr

2
13.5
10:55 Uhr
9.6
19:05 Uhr
11.0
01:55 Uhr
5
10:55 Uhr
0.0
00:00 Uhr
0.4
13:25 Uhr
0.0
00:00 Uhr
26
Zeitraffer
10:02
18.0
14:20 Uhr
11.5
07:05 Uhr

86
07:10 Uhr
66
14:20 Uhr
1018.5
00:00 Uhr

1011.3
23:45 Uhr
1014.8
0,000
00:00 Uhr
0,000
00:00:00
0.889
110
262
12:35 Uhr
0.9
12:05 Uhr

02:31:00
1,1
0
16,1
19:20 Uhr

3
12.0
16:05 Uhr
9.1
06:55 Uhr
11.5
07:05 Uhr
4
18:25 Uhr
0.0
00:00 Uhr
0.5
13:00 Uhr
0.0
00:00 Uhr
27
Zeitraffer
09:58
16.3
08:05 Uhr
7.4
23:55 Uhr

90
09:45 Uhr
68
15:25 Uhr
1018.2
23:10 Uhr

1008.8
04:40 Uhr
1013.9
2,400
08:40 Uhr
0,800
00:04:00
0.508
37
97
13:00 Uhr
0.0
00:00 Uhr

00:00:00
0,6
0
9,7
09:20 Uhr

2
12.3
08:55 Uhr
4.7
23:25 Uhr
7.4
23:55 Uhr
2
00:00 Uhr
0.0
00:00 Uhr
0.6
04:30 Uhr
0.0
00:00 Uhr
28
Zeitraffer
09:54
13.5
12:05 Uhr
6.1
23:40 Uhr

90
07:10 Uhr
67
12:05 Uhr
1019.4
23:35 Uhr

1017.2
03:25 Uhr
1018.5
0,000
00:00 Uhr
0,000
00:00:00
0.635
118
381
12:10 Uhr
0.8
11:25 Uhr

03:26:00
0,2
0
8,0
12:30 Uhr

2
8.0
10:55 Uhr
4.5
02:30 Uhr
6.1
23:40 Uhr
0
00:00 Uhr
0.0
00:00 Uhr
0.2
12:30 Uhr
0.0
00:00 Uhr
29
Zeitraffer
09:51
9.6
15:00 Uhr
1.8
23:40 Uhr

95
08:45 Uhr
72
15:25 Uhr
1028.6
23:55 Uhr

1019.2
00:00 Uhr
1023.3
0,000
00:00 Uhr
0,000
00:00:00
0.305
65
186
10:45 Uhr
0.5
10:40 Uhr

00:00:00
0,8
0
16,1
12:45 Uhr

3
5.6
14:20 Uhr
0.2
23:40 Uhr
1.8
23:40 Uhr
0
00:00 Uhr
0.0
00:00 Uhr
0.5
15:50 Uhr
0.0
00:00 Uhr
30
Zeitraffer
09:47
9.4
11:55 Uhr
-0.6
06:30 Uhr

92
05:45 Uhr
60
14:00 Uhr
1030.5
10:15 Uhr

1028.4
16:00 Uhr
1029.2
0,000
00:00 Uhr
0,000
00:00:00
0.508
110
382
11:55 Uhr
0.7
11:45 Uhr

04:07:00
0,1
0
11,3
12:05 Uhr

2
3.3
10:50 Uhr
-1.9
06:45 Uhr
-0.6
06:30 Uhr
0
00:00 Uhr
0.0
00:00 Uhr
0.6
11:50 Uhr
0.0
00:00 Uhr
31
Zeitraffer
09:43
7.7
11:10 Uhr
-1.3
06:30 Uhr

92
07:35 Uhr
62
11:30 Uhr
1028.4
00:00 Uhr

1023.0
23:50 Uhr
1026.3
0,000
00:00 Uhr
0,000
00:00:00
0.483
108
310
12:15 Uhr
0.6
11:05 Uhr

02:58:00
0,7
0
12,9
12:00 Uhr

2
2.1
10:35 Uhr
-2.6
06:30 Uhr
-1.3
06:30 Uhr
0
00:00 Uhr
0.0
00:00 Uhr
0.6
11:55 Uhr
0.0
00:00 Uhr

Seiten-Historie || Downloads || Impressum / Datenschutz